Beaufort, NC

7:12 AM EDT on August 22, 2019 (GMT -0400)
Smith

Weather History for KMRH - May, 2019

Change the Weather History Date:

Wednesday, May 1, 2019

  Actual Average Record
Temperature  
Mean Temperature 72 °F -  
Max Temperature 79 °F 75 °F 86 °F (1990)
Min Temperature 66 °F 55 °F 40 °F (1980)
Cooling Degree Days 8    
Growing Degree Days 22 (Base 50)    
Moisture  
Dew Point 66 °F    
Average Humidity 78    
Maximum Humidity 93    
Minimum Humidity 64    
Precipitation  
Precipitation 0.00 in - - ()
Sea Level Pressure  
Sea Level Pressure 30.30 in    
Wind  
Wind Speed 7 mph (SSW)    
Max Wind Speed 14 mph    
Max Gust Speed -    
Visibility 10 miles    
Events      
Averages and records for this station are not official NWS values.
T = Trace of Precipitation, MM = Missing Value Source: NWS Daily Summary

Daily Weather History Graph

Daily Weather History Graph

Search for Another Location

Airport or City:

Astronomy

May. 01, 2019 Rise Set
Actual Time 6:16 AM EDT 7:51 PM EDT
Civil Twilight 5:49 AM EDT 8:18 PM EDT
Nautical Twilight 5:17 AM EDT 8:50 PM EDT
Astronomical Twilight 4:43 AM EDT 9:25 PM EDT
Moon 4:48 AM EDT (5/1) 4:48 PM EDT (5/1)
Length of Visible Light 14h 28m
Length of Day
13h 34m
Waning Crescent, 11% of the Moon is Illuminated
May 1
Waning Crescent
May 4
New
May 11
First Quarter
May 18
Full
May 26
Last Quarter

Hourly Weather History & Observations

Time (EDT) Temp. Dew Point Humidity Pressure Visibility Wind Dir Wind Speed Gust Speed Precip Events Conditions
12:58 AM 70.0 °F 64.9 °F 84% 30.30 in 10.0 mi SSW 8.1 mph - N/A   Clear
1:58 AM 70.0 °F 64.9 °F 84% 30.29 in 10.0 mi SSW 8.1 mph - N/A   Clear
2:58 AM 69.1 °F 64.9 °F 87% 30.27 in 10.0 mi SSW 6.9 mph - N/A   Clear
3:58 AM 68.0 °F 64.0 °F 87% 30.26 in 10.0 mi SSW 5.8 mph - N/A   Clear
4:58 AM 66.9 °F 64.0 °F 90% 30.27 in 10.0 mi South 4.6 mph - N/A   Clear
5:58 AM 66.0 °F 64.0 °F 93% 30.28 in 6.0 mi Calm Calm - N/A   Clear
6:58 AM 66.9 °F 64.9 °F 93% 30.31 in 10.0 mi South 3.5 mph - N/A   Clear
7:58 AM 73.0 °F 66.9 °F 81% 30.33 in 10.0 mi SSW 5.8 mph - N/A   Clear
8:58 AM 75.0 °F 66.9 °F 76% 30.34 in 10.0 mi SW 6.9 mph - N/A   Partly Cloudy
9:34 AM 75.9 °F 66.0 °F 71% 30.35 in 10.0 mi SW 9.2 mph - N/A   Mostly Cloudy
9:58 AM 77.0 °F 66.0 °F 69% 30.35 in 10.0 mi SSW 8.1 mph - N/A   Overcast
10:25 AM 77.0 °F 66.0 °F 69% 30.34 in 10.0 mi SSW 8.1 mph - N/A   Scattered Clouds
10:58 AM 78.1 °F 66.0 °F 66% 30.35 in 10.0 mi SW 9.2 mph - N/A   Clear
11:58 AM 78.1 °F 66.0 °F 66% 30.34 in 10.0 mi SSW 8.1 mph - N/A   Clear
12:58 PM 79.0 °F 66.0 °F 64% 30.32 in 10.0 mi South 8.1 mph - N/A   Clear
1:58 PM 78.1 °F 66.9 °F 68% 30.32 in 10.0 mi South 10.4 mph - N/A   Clear
2:58 PM 79.0 °F 68.0 °F 69% 30.30 in 10.0 mi South 11.5 mph - N/A   Clear
3:58 PM 79.0 °F 66.9 °F 66% 30.28 in 10.0 mi South 13.8 mph - N/A   Clear
4:58 PM 78.1 °F 66.0 °F 66% 30.27 in 10.0 mi SSW 10.4 mph - N/A   Scattered Clouds
5:46 PM 77.0 °F 66.0 °F 69% 30.27 in 10.0 mi SSW 8.1 mph - N/A   Mostly Cloudy
5:58 PM 77.0 °F 66.0 °F 69% 30.27 in 10.0 mi SSW 9.2 mph - N/A   Scattered Clouds
6:58 PM 75.9 °F 66.9 °F 74% 30.27 in 10.0 mi South 9.2 mph - N/A   Scattered Clouds
7:58 PM 73.9 °F 68.0 °F 82% 30.29 in 10.0 mi South 8.1 mph - N/A   Scattered Clouds
8:09 PM 73.0 °F 68.0 °F 84% 30.28 in 10.0 mi South 8.1 mph - N/A   Mostly Cloudy
8:58 PM 73.0 °F 68.0 °F 84% 30.30 in 10.0 mi South 6.9 mph - N/A   Overcast
9:27 PM 72.0 °F 68.0 °F 87% 30.30 in 10.0 mi South 6.9 mph - N/A   Scattered Clouds
9:58 PM 72.0 °F 66.9 °F 84% 30.30 in 10.0 mi South 8.1 mph - N/A   Clear
10:58 PM 72.0 °F 66.9 °F 84% 30.30 in 10.0 mi South 8.1 mph - N/A   Clear
11:58 PM 71.1 °F 66.9 °F 87% 30.29 in 10.0 mi South 6.9 mph - N/A   Clear